Regional Weather Roundup
Issued by NWS Goodland, KS

Home | Current Version | Previous Version | Graphics & Text | Print | Product List | Glossary On
Versions: 1 2 3 4 5 6 7 8 9 10 11 12 13 14 15 16 17 18 19 20 21 22 23 24 25 26 27 28 29 30 31 32 33 34 35 36 37 38 39 40 41 42 43 44 45 46 47 48 49 50
320
ASUS43 KGLD 290808
RWRGLD

GOODLAND FORECAST AREA HOURLY WEATHER ROUNDUP
NATIONAL WEATHER SERVICE GOODLAND KS
200 AM MDT WED MAR 29 2017

...OFFICIAL OBSERVATIONS...

CITY           SKY/WX    TMP DP  RH WIND       PRES   REMARKS
GOODLAND KS    CLOUDY    39  38  96 NE16G24   29.99S FOG
HILL CITY KS   LGT RAIN  43  43 100 N18G25    29.95F FOG
IMPERIAL NEB   LGT RAIN  41  39  93 NE12      30.05F
MCCOOK NEB     LGT RAIN  42  42 100 NE14      30.02S FOG
AKRON CO       LGT RAIN  37  35  92 NE14      30.04R FOG
BURLINGTON CO  CLOUDY    38  37  97 NE14G25   29.99S
LIMON CO       FLURRIES  33  33 100 N9        30.03R
$$

...UNOFFICIAL OBSERVATIONS...

CITY           SKY/WX    TMP DP  RH WIND       PRES   REMARKS
NORTON KS      DRIZZLE   41  37  87 N14       29.98F
SHARON SPRINGS   N/A     39  38  97 NE13        N/A
TRENTON NEB      N/A     41  32  70 N8          N/A
KIT CARSON CO    N/A     38  35  90 MISG        N/A
YUMA CO        DRIZZLE   36  36 100 NE14      30.03F
$$




USA.gov is the U.S. government's official web portal to all federal, state and local government web resources and services.